SCP
-0 -0 -0 -0 -0 -0 -0 -0 -0 -0 -0 -0 -0 -0 -0 -0 -0 0 0 0 0 0 0 0 0 0 0
0 0 0 -0 -0 -0 -0 -0 -0 -0 -0 -0 -0 0 0 0 0 0 0 0 0 0 0 0 0 0 0
0 0 0 0 0 0 0 0 0 0 0 0 0 0 0 0 0 0 0 0 0 0 0 0 0 0 0
0 0 0 0 0 0 0 0 0 0 0 0 0 0 0 0 0 0 0 0 0 0 0 0 0 0 0
0 0 0 0 0 0 0 0 0 0 0 0 0 0 0 0 0 0 0 0 0 0 0 0 0 0 0
0 0 0 0 0 0 0 0 0 0 0 0 0 0 0 0 0 0 0 0 0 0 0 0 0 0 0
0 0 0 0 0 0 0 0 0 0 0 0 0 0 0 0 0 0 0 0 0 0 0 0 0 0 0
0 0 0 0 0 0 0 0 0 0 0 0 0 0 0 0 0 0 0 0 0 0 0 0 0 0 0
0 0 0 0 0 0 0 0 0 0 0 0 0 0 0 0 0 0 0 0 0 0 0 0 0 0 0
0 0 0 0 0 0 0 0 0 0 0 0 0 0 0 0 0 0 0 0 0 0 0 0 0 0 0
0 0 0 0 0 0 0 0 0 0 0 0 0 0 0 0 0 0 0 0 0 0 0 0 0 0 0
0 0 0 0 0 0 0 0 0 0 0 0 0 0 0 0 0 0 0 0 0 0 0 0 0 0 0
0 0 0 0 0 0 0 0 0 0 0 0 0 0 0 0 0 0 0 0 0 0 0 0 0 0 0
0 0 0 0 0 0 0 0 0 0 0 0 0 0 0 0 0 0 0 0 0 0 0 0 0 0 0
0 0 0 0 0 0 0 0 0 0 0 0 0 0 0 0 0 0 0 0 0 0 0 0 0 0 0
0 0 0 0 0 0 0 0 0 0 0 0 0 0 0 0 0 0 0 0 0 0 0 0 0 0 0
Wind_Speed_500mb
19 14 10 8 7 6 9 9 16 19 22 19 20 23 20 15 13 11 12 13 15 17 18 16 15 8 9
24 21 15 11 10 10 9 7 9 13 17 17 19 21 21 15 11 9 9 9 11 13 14 17 11 7 6
27 27 25 19 16 16 14 14 12 13 14 15 18 20 20 16 11 7 7 6 7 11 10 8 9 8 3
31 31 29 24 22 21 19 19 18 20 20 21 20 19 20 18 13 9 5 4 5 7 9 8 10 2 3
30 30 32 30 27 26 23 24 24 27 26 26 22 22 20 19 17 13 10 9 6 5 8 4 5 6 8
32 37 33 32 31 30 27 26 29 29 28 24 23 23 24 23 22 19 16 14 10 7 10 10 11 10 12
43 43 39 35 37 34 30 27 31 33 29 28 29 28 28 28 27 24 22 19 13 16 16 16 12 16 15
53 50 46 40 39 37 35 30 33 36 35 35 34 35 32 31 30 26 22 21 18 18 20 19 15 24 19
58 55 52 44 44 45 43 38 38 39 40 39 39 38 35 33 31 30 29 26 24 20 24 24 23 27 20
62 60 58 53 48 48 49 46 44 44 45 45 44 43 39 38 38 37 36 35 34 32 30 28 26 30 27
62 64 63 60 57 53 52 54 51 49 50 50 49 46 43 44 45 43 42 41 39 35 34 31 31 38 32
60 66 68 67 66 62 60 61 60 58 55 55 55 54 50 51 50 49 47 44 43 38 35 37 38 43 44
69 67 75 79 76 73 70 67 66 66 62 60 60 61 59 60 57 53 50 49 49 45 43 40 43 48 53
69 67 71 77 80 77 73 71 70 72 67 66 65 66 67 65 63 61 58 57 55 52 53 42 40 42 51
74 69 69 71 79 82 84 84 83 76 73 68 68 68 70 70 70 67 65 64 63 58 59 53 21 28 20
79 80 80 78 79 80 87 90 90 85 81 78 74 73 72 71 74 72 71 71 68 68 62 67 67 61 29
Wind_Direction_500mb
180 180 169 150 153 142 150 169 164 163 160 173 154 145 154 148 139 122 105 97 96 95 119 135 127 110 117
193 190 199 195 189 182 173 176 162 176 179 175 164 166 165 166 162 141 122 103 94 94 115 156 166 114 99
206 203 204 209 209 201 198 192 191 185 188 190 179 177 173 179 178 162 139 120 115 100 86 134 152 125 301
211 211 214 218 217 211 210 207 203 198 195 194 195 188 188 189 193 196 189 173 162 152 68 84 85 138 315
212 216 216 222 222 223 219 214 213 208 205 206 203 203 204 205 208 213 219 222 219 182 208 202 270 280 305
221 227 225 223 227 227 220 212 217 224 217 219 220 219 218 217 218 222 223 227 231 235 240 222 275 292 309
223 232 240 225 230 228 226 219 224 233 233 233 229 229 225 226 229 228 230 233 242 240 229 232 256 269 295
227 231 239 238 234 236 234 233 232 236 236 234 234 230 229 229 231 237 241 245 246 247 236 246 256 269 287
230 234 239 241 239 236 238 237 239 240 240 239 239 239 236 233 234 235 235 239 245 241 243 244 249 263 282
232 235 239 241 241 239 241 242 241 241 242 241 241 242 241 239 237 237 237 242 247 245 245 247 259 260 274
234 236 242 245 244 244 242 243 245 243 242 242 244 245 242 240 239 239 241 244 246 246 246 248 249 256 265
238 235 238 244 247 248 246 247 248 247 242 242 244 245 243 242 240 241 242 244 245 243 247 251 252 259 262
236 232 235 237 240 243 246 249 253 249 247 243 243 244 242 243 245 245 246 245 244 241 240 250 256 258 264
241 241 241 241 244 247 247 250 244 246 250 246 245 245 244 243 244 244 244 245 246 240 237 252 263 269 270
246 245 244 245 246 245 246 246 249 249 249 250 247 247 246 245 245 247 249 247 248 244 239 237 232 243 268
248 248 248 246 248 253 250 249 249 252 252 254 252 248 248 246 246 248 249 250 249 248 244 240 248 255 262
Wind_Speed_850mb
19 14 10 8 7 6 9 9 16 19 22 19 20 23 20 15 13 11 12 13 15 17 18 16 15 8 9
24 21 15 11 10 10 9 7 9 13 17 17 19 21 21 15 11 9 9 9 11 13 14 17 11 7 6
27 27 25 19 16 16 14 14 12 13 14 15 18 20 20 16 11 7 7 6 7 11 10 8 9 8 3
31 31 29 24 22 21 19 19 18 20 20 21 20 19 20 18 13 9 5 4 5 7 9 8 10 2 3
30 30 32 30 27 26 23 24 24 27 26 26 22 22 20 19 17 13 10 9 6 5 8 4 5 6 8
32 37 33 32 31 30 27 26 29 29 28 24 23 23 24 23 22 19 16 14 10 7 10 10 11 10 12
43 43 39 35 37 34 30 27 31 33 29 28 29 28 28 28 27 24 22 19 13 16 16 16 12 16 15
53 50 46 40 39 37 35 30 33 36 35 35 34 35 32 31 30 26 22 21 18 18 20 19 15 24 19
58 55 52 44 44 45 43 38 38 39 40 39 39 38 35 33 31 30 29 26 24 20 24 24 23 27 20
62 60 58 53 48 48 49 46 44 44 45 45 44 43 39 38 38 37 36 35 34 32 30 28 26 30 27
62 64 63 60 57 53 52 54 51 49 50 50 49 46 43 44 45 43 42 41 39 35 34 31 31 38 32
60 66 68 67 66 62 60 61 60 58 55 55 55 54 50 51 50 49 47 44 43 38 35 37 38 43 44
69 67 75 79 76 73 70 67 66 66 62 60 60 61 59 60 57 53 50 49 49 45 43 40 43 48 53
69 67 71 77 80 77 73 71 70 72 67 66 65 66 67 65 63 61 58 57 55 52 53 42 40 42 51
74 69 69 71 79 82 84 84 83 76 73 68 68 68 70 70 70 67 65 64 63 58 59 53 21 28 20
79 80 80 78 79 80 87 90 90 85 81 78 74 73 72 71 74 72 71 71 68 68 62 67 67 61 29
Wind_Direction_850mb
180 180 169 150 153 142 150 169 164 163 160 173 154 145 154 148 139 122 105 97 96 95 119 135 127 110 117
193 190 199 195 189 182 173 176 162 176 179 175 164 166 165 166 162 141 122 103 94 94 115 156 166 114 99
206 203 204 209 209 201 198 192 191 185 188 190 179 177 173 179 178 162 139 120 115 100 86 134 152 125 301
211 211 214 218 217 211 210 207 203 198 195 194 195 188 188 189 193 196 189 173 162 152 68 84 85 138 315
212 216 216 222 222 223 219 214 213 208 205 206 203 203 204 205 208 213 219 222 219 182 208 202 270 280 305
221 227 225 223 227 227 220 212 217 224 217 219 220 219 218 217 218 222 223 227 231 235 240 222 275 292 309
223 232 240 225 230 228 226 219 224 233 233 233 229 229 225 226 229 228 230 233 242 240 229 232 256 269 295
227 231 239 238 234 236 234 233 232 236 236 234 234 230 229 229 231 237 241 245 246 247 236 246 256 269 287
230 234 239 241 239 236 238 237 239 240 240 239 239 239 236 233 234 235 235 239 245 241 243 244 249 263 282
232 235 239 241 241 239 241 242 241 241 242 241 241 242 241 239 237 237 237 242 247 245 245 247 259 260 274
234 236 242 245 244 244 242 243 245 243 242 242 244 245 242 240 239 239 241 244 246 246 246 248 249 256 265
238 235 238 244 247 248 246 247 248 247 242 242 244 245 243 242 240 241 242 244 245 243 247 251 252 259 262
236 232 235 237 240 243 246 249 253 249 247 243 243 244 242 243 245 245 246 245 244 241 240 250 256 258 264
241 241 241 241 244 247 247 250 244 246 250 246 245 245 244 243 244 244 244 245 246 240 237 252 263 269 270
246 245 244 245 246 245 246 246 249 249 249 250 247 247 246 245 245 247 249 247 248 244 239 237 232 243 268
248 248 248 246 248 253 250 249 249 252 252 254 252 248 248 246 246 248 249 250 249 248 244 240 248 255 262